SCP
0 0 0 0 0 0 0 0 0 0 0 0 0 0 0 1 1 1 1 1 1 1 1 1 1 1 1 1 1 1 1 1 1 1 1 1 0 0 0 0 0 0 0
0 0 0 0 0 0 0 0 0 0 0 0 0 0 0 0 0 2 2 1 1 1 1 1 1 1 1 1 1 1 1 1 1 1 1 1 1 0 0 0 0 0 0
0 0 0 0 0 0 0 0 0 0 0 0 0 0 0 0 0 0 0 2 2 1 1 1 1 1 2 1 1 1 1 1 1 1 1 2 1 1 0 0 0 0 0
-0 -0 0 0 0 0 0 0 0 0 0 0 0 0 0 0 0 0 0 1 1 2 1 1 1 2 2 2 1 1 1 2 1 1 1 0 1 1 0 0 0 0 0
-0 -0 -0 -0 0 0 0 0 0 0 0 0 0 0 0 0 0 0 0 0 1 1 1 1 1 1 2 2 2 1 1 2 1 1 1 0 0 0 1 1 0 0 0
-0 -0 -0 -0 -0 0 0 0 0 0 0 0 0 0 0 0 0 0 0 0 0 1 1 1 2 2 2 1 2 2 1 1 2 1 2 1 0 0 0 0 0 0 0
-0 -0 -0 -0 -0 0 0 -0 0 0 0 0 0 0 0 0 0 0 0 0 0 0 1 2 2 2 2 2 1 2 1 1 1 2 2 1 1 0 0 0 0 0 0
-0 -0 -0 -0 0 0 0 -0 0 0 0 0 0 0 0 0 0 0 0 0 0 0 1 1 2 2 2 2 1 1 3 1 1 1 1 1 0 0 0 0 0 0 0
-0 -0 -0 -0 0 0 -0 -0 0 0 0 0 0 0 0 0 0 0 0 0 0 0 0 1 2 2 2 1 2 1 2 2 0 1 0 0 0 0 0 0 0 0 0
0 -0 -0 -0 -0 -0 -0 -0 0 -0 0 0 0 0 0 0 0 0 0 0 0 0 0 1 2 2 1 1 2 2 1 0 0 0 0 0 0 0 0 0 0 0 0
0 0 0 -0 -0 -0 -0 0 0 0 0 0 0 0 0 0 0 0 0 0 0 0 0 0 1 1 2 2 2 1 0 0 0 0 0 0 0 0 0 0 0 0 0
0 0 0 -0 -0 -0 0 0 0 0 0 0 0 0 0 0 0 0 0 0 0 0 0 0 1 2 1 1 1 0 0 0 0 0 0 0 0 0 0 0 0 0 0
0 0 0 0 0 0 0 0 0 0 0 0 0 0 0 0 0 0 0 0 0 0 0 0 1 1 0 0 0 0 0 0 0 0 0 0 0 0 0 0 0 0 0
0 0 0 0 0 0 0 0 0 0 0 0 0 0 0 0 0 0 0 0 0 0 0 1 1 1 0 0 0 0 0 0 0 0 0 0 0 0 0 0 0 0 0
0 0 0 0 0 0 0 0 0 0 0 0 0 0 0 0 0 0 0 0 0 0 0 0 0 0 0 0 0 0 0 0 0 0 0 0 0 0 0 0 0 0 0
0 0 0 0 0 0 0 0 0 0 0 0 0 0 0 0 0 0 0 0 0 0 0 0 0 0 0 0 0 0 0 0 0 0 0 0 0 0 0 0 0 0 0
0 0 0 0 0 0 0 0 0 0 0 0 0 0 0 0 -0 -0 0 0 0 0 0 0 0 0 0 0 0 0 0 0 0 0 0 0 0 0 0 0 0 0 0
0 0 0 0 0 0 0 0 0 0 0 0 0 0 0 -0 -0 -0 0 0 0 0 0 0 0 0 0 -0 0 0 0 0 0 0 0 0 0 0 0 0 0 0 0
0 0 0 0 0 0 0 0 0 0 0 0 0 -0 -0 0 0 -0 0 0 0 0 0 0 0 0 0 0 -0 0 0 0 0 0 0 0 0 0 0 0 0 0 0
0 0 0 0 0 0 0 0 0 0 0 0 -0 -0 -0 0 0 0 0 0 0 0 0 0 0 0 0 0 0 0 0 0 0 0 0 0 0 -0 -0 -0 0 0 0
0 0 0 0 0 0 0 0 0 -0 0 0 -0 -0 -0 0 0 0 0 0 0 0 0 0 0 0 0 0 0 0 0 0 0 0 0 0 -0 -0 -0 -0 -0 0 0
0 0 0 0 0 0 0 0 -0 0 0 -0 -0 0 -0 0 0 0 0 0 0 0 0 0 0 0 0 0 0 -0 -0 0 0 0 0 -0 -0 -0 -0 -0 0 0 -0
0 0 0 0 0 0 0 -0 -0 -0 -0 0 0 -0 -0 0 0 0 0 0 0 0 0 0 0 0 0 0 -0 -0 -0 -0 -0 0 -0 -0 -0 -0 -0 -0 -0 -0 -0
0 0 0 0 0 0 0 0 0 -0 -0 -0 -0 0 0 0 0 0 0 0 0 0 0 0 0 0 0 0 0 0 0 0 -0 -0 -0 -0 -0 -0 -0 -0 -0 -0 0
0 0 0 0 0 0 0 -0 -0 -0 -0 -0 0 0 0 -0 0 0 0 0 0 0 0 0 0 0 0 0 0 0 0 0 -0 -0 -0 -0 -0 -0 0 -0 -0 0 0
0 0 0 0 0 0 0 -0 -0 -0 -0 0 0 0 0 0 0 0 0 0 0 0 0 0 0 0 0 0 0 -0 -0 0 -0 -0 -0 -0 -0 0 0 -0 0 0 0
Wind_Speed_500mb
37 47 54 56 56 53 53 47 42 39 40 44 49 51 60 68 74 74 71 66 63 60 61 56 56 59 67 70 68 64 59 54 48 43 44 47 50 50 49 46 47 47 46
44 48 57 61 61 60 57 54 49 42 37 43 50 58 61 63 74 76 80 77 73 67 65 62 60 59 63 69 70 67 66 60 51 39 33 30 34 47 49 49 50 51 47
50 56 61 65 63 59 59 56 49 43 34 35 43 50 58 67 68 74 82 82 79 78 76 71 65 63 64 68 74 73 70 49 47 53 36 23 34 24 41 48 49 48 46
39 46 55 64 64 60 57 53 49 44 34 33 39 43 50 55 59 70 70 78 85 82 80 78 71 67 67 66 72 66 65 60 46 51 61 54 28 21 12 27 35 37 38
39 47 55 58 61 58 56 55 53 47 40 36 36 41 47 52 56 63 77 75 73 89 83 81 74 71 68 68 68 64 66 72 67 56 52 65 62 56 35 30 26 34 35
45 45 49 55 57 53 54 52 53 51 47 41 38 42 46 48 54 59 66 73 72 73 89 82 79 73 73 70 70 65 64 82 77 66 65 62 51 45 54 35 29 24 30
50 51 60 64 63 57 55 48 49 52 48 45 41 41 49 54 56 58 61 67 68 73 76 87 83 77 73 68 64 66 62 72 78 74 70 72 71 56 49 36 34 24 30
53 49 58 61 67 58 57 49 49 54 53 54 49 50 48 58 59 56 61 63 64 71 75 73 85 80 74 73 65 64 60 68 74 84 76 80 67 63 50 42 36 25 22
51 52 58 62 65 57 53 50 56 58 60 61 62 56 54 56 62 62 62 60 66 71 78 77 68 76 77 71 67 62 64 63 63 76 79 75 60 55 43 38 33 24 17
50 53 58 62 62 54 52 52 55 56 67 68 64 62 63 64 59 65 64 64 60 60 70 79 75 68 74 75 70 67 60 60 69 70 68 60 51 43 35 33 31 29 20
53 56 61 63 63 56 57 58 62 68 77 67 61 63 67 68 65 65 62 62 58 59 61 65 70 65 69 70 65 62 57 61 66 56 57 46 36 28 30 30 25 21 15
53 57 63 67 66 64 68 73 71 83 79 71 70 72 72 69 66 64 57 55 62 59 65 62 60 63 61 63 59 58 60 66 71 63 60 51 46 36 34 24 18 13 14
54 57 63 67 68 73 84 79 69 88 79 72 74 77 75 69 65 61 56 51 55 58 52 53 61 57 62 54 52 53 60 63 61 71 56 54 46 37 25 18 12 8 9
53 56 63 67 69 72 73 73 84 84 76 74 75 76 71 69 64 56 51 49 54 46 46 50 51 58 54 51 50 51 56 63 64 63 61 51 38 30 18 12 5 4 5
54 56 63 69 78 80 81 85 86 82 73 73 74 70 62 42 41 44 42 37 33 43 45 51 55 53 50 47 46 44 58 64 64 65 60 49 37 27 18 8 1 3 8
53 58 63 67 78 80 78 82 84 77 71 71 68 58 49 43 38 16 19 32 38 46 54 59 55 50 47 45 39 51 69 76 77 65 52 40 30 22 12 2 5 7 9
53 59 63 74 79 78 77 78 76 71 68 64 55 49 37 40 17 16 29 40 49 58 61 57 51 48 49 44 48 65 82 83 74 66 50 39 30 23 10 8 2 7 10
50 59 69 84 71 75 70 70 68 67 62 54 47 39 25 17 4 8 30 47 52 54 51 47 46 51 51 45 52 68 78 72 62 55 52 42 34 25 14 9 4 7 11
55 63 70 68 73 67 65 65 68 62 56 50 42 31 15 6 20 10 32 39 48 46 48 48 54 52 54 38 59 82 78 71 69 63 61 43 36 26 18 10 7 10 13
59 67 67 69 63 61 62 62 63 55 48 43 33 22 8 8 23 34 46 54 50 54 60 64 63 66 79 79 84 80 75 75 65 63 51 36 27 22 19 14 15 14 16
62 62 65 63 57 58 57 59 57 47 37 23 14 12 10 18 29 43 50 61 63 66 70 78 82 83 80 73 68 75 73 75 70 59 48 38 29 26 24 22 21 22 24
63 62 64 58 55 55 54 55 51 37 24 15 11 18 27 32 37 45 60 71 76 87 94 97 94 90 82 77 74 72 72 67 62 55 48 41 36 34 31 30 30 28 26
53 63 57 56 54 52 52 51 41 23 20 22 27 28 34 45 51 65 77 85 96 109 108 109 104 93 84 74 67 62 58 52 57 57 54 49 44 41 38 35 31 28 26
53 59 56 54 54 51 49 41 28 14 13 35 43 42 48 59 69 81 82 94 102 111 111 102 96 87 78 71 62 55 49 55 63 59 57 51 48 44 41 38 36 36 38
48 53 51 49 49 48 46 34 22 17 29 43 50 58 71 77 84 89 91 100 100 104 102 95 88 81 75 64 60 61 62 63 62 61 56 47 41 42 38 36 39 41 39
44 48 45 45 44 45 42 31 19 18 36 53 63 68 79 84 90 97 101 94 91 88 87 83 80 74 70 64 64 64 63 62 59 55 50 47 40 37 35 36 39 42 38
Wind_Direction_500mb
360 1 1 357 351 344 339 329 315 299 282 272 266 263 257 252 251 251 253 253 255 257 260 258 256 245 247 247 246 246 243 243 240 240 239 245 246 243 246 255 254 258 260
357 356 356 354 349 344 339 334 325 313 297 278 270 265 260 254 251 251 249 248 250 253 257 258 255 253 248 249 247 240 242 240 236 235 233 235 239 237 243 250 254 256 258
351 351 351 350 346 343 339 335 327 320 313 293 278 269 266 261 255 254 253 247 248 249 253 256 254 254 252 252 252 245 239 237 239 236 227 223 235 222 244 251 253 256 257
352 349 348 344 341 337 336 334 327 327 319 309 297 286 279 274 263 256 259 258 252 248 251 254 255 254 257 255 253 249 242 242 241 241 233 228 225 220 224 251 254 259 258
348 346 344 342 337 334 329 332 329 325 319 312 304 291 287 284 281 270 258 254 256 254 250 249 252 249 253 255 250 250 236 229 239 239 237 235 241 244 245 258 256 260 260
343 340 338 338 334 331 331 326 326 326 323 314 309 301 292 290 285 279 268 257 250 252 249 245 248 247 248 253 253 249 240 231 232 236 242 242 240 237 244 245 247 242 255
337 335 337 337 336 331 330 324 322 324 322 314 304 298 296 299 294 284 279 262 252 248 249 245 242 243 243 248 255 252 241 237 233 236 240 245 243 244 255 251 254 241 255
337 331 333 334 334 328 329 327 320 319 322 319 305 298 293 295 293 288 282 271 254 249 247 252 243 243 244 246 250 252 252 245 233 235 232 239 244 250 253 254 251 245 254
335 333 332 333 330 326 325 320 322 315 318 314 309 298 295 294 293 292 282 271 261 252 245 244 247 242 241 244 246 249 254 247 234 228 229 236 238 243 246 246 249 240 244
332 332 332 331 331 325 323 320 319 316 318 315 308 298 290 292 293 293 287 269 261 255 243 240 244 242 239 240 242 245 253 244 239 235 227 227 229 235 239 237 247 247 243
332 331 332 333 331 328 326 324 320 316 322 318 309 303 297 293 291 286 286 267 261 249 246 242 240 237 235 233 232 242 244 230 235 232 219 217 220 231 241 235 238 246 258
329 332 333 333 333 329 327 322 322 324 322 321 311 306 301 300 291 286 280 267 265 254 244 238 228 227 232 225 224 235 233 232 232 229 213 208 216 220 226 226 234 253 264
331 332 332 334 332 328 333 332 316 322 321 319 315 311 305 304 294 286 277 266 260 252 243 223 216 217 220 213 222 229 231 234 228 216 207 203 192 199 205 219 228 254 301
328 329 331 330 330 327 325 323 321 323 322 320 319 315 311 303 290 286 269 264 254 230 218 211 207 211 208 215 219 222 223 214 203 198 194 184 173 178 162 215 223 287 325
329 330 331 330 329 328 332 326 329 330 327 323 326 322 321 313 290 276 263 252 209 205 206 199 198 199 205 209 215 214 219 207 189 176 167 164 166 164 140 181 120 350 336
328 329 330 328 329 331 328 332 333 331 330 331 328 329 329 323 317 261 189 193 191 197 195 187 190 197 199 205 208 207 198 183 179 168 155 147 141 120 152 116 296 319 338
326 327 328 331 334 333 334 335 335 336 336 331 335 334 332 334 329 189 187 188 188 186 181 182 188 185 188 196 205 198 177 171 164 157 148 147 131 117 151 160 35 360 346
326 328 330 338 335 340 342 339 341 342 339 340 340 339 338 341 98 163 173 170 165 169 171 168 171 173 175 198 205 187 164 147 137 126 129 122 122 128 128 99 49 2 6
329 330 335 338 338 347 346 344 346 343 345 344 348 343 341 92 143 152 160 162 163 149 151 155 158 163 162 181 169 157 144 134 122 113 111 127 136 142 127 104 62 43 33
333 336 342 341 347 351 350 349 347 348 349 348 348 343 343 150 149 156 156 154 157 150 146 144 143 145 147 154 149 143 137 128 123 116 123 133 132 120 109 94 82 68 52
337 341 346 348 353 353 353 351 354 353 350 355 352 38 95 131 145 149 150 149 143 142 139 134 132 132 130 131 130 123 120 119 121 129 130 121 114 105 98 94 86 68 52
340 347 351 351 357 356 359 355 356 354 4 2 78 99 112 125 137 141 136 137 141 134 128 125 119 114 110 111 110 111 115 124 124 124 118 110 105 101 95 84 70 58 51
344 353 353 355 1 1 359 359 359 355 49 77 96 106 119 121 123 123 123 116 121 127 122 117 114 113 112 110 108 109 111 117 119 114 108 103 98 91 81 72 66 62 55
346 358 358 357 1 1 360 5 3 29 78 101 107 112 116 119 122 119 118 120 121 119 118 118 118 119 117 114 113 114 120 121 109 105 101 99 92 85 76 72 63 56 52
351 2 2 359 5 360 4 13 18 57 93 107 112 112 115 118 119 119 117 120 118 118 117 117 116 115 114 116 123 125 119 111 110 107 101 93 86 78 69 62 57 51 48
355 5 6 4 10 7 11 24 32 86 108 109 110 113 112 112 110 109 109 107 110 114 112 112 113 112 108 112 112 110 108 108 107 100 94 86 78 69 59 53 50 46 44
Wind_Speed_850mb
37 47 54 56 56 53 53 47 42 39 40 44 49 51 60 68 74 74 71 66 63 60 61 56 56 59 67 70 68 64 59 54 48 43 44 47 50 50 49 46 47 47 46
44 48 57 61 61 60 57 54 49 42 37 43 50 58 61 63 74 76 80 77 73 67 65 62 60 59 63 69 70 67 66 60 51 39 33 30 34 47 49 49 50 51 47
50 56 61 65 63 59 59 56 49 43 34 35 43 50 58 67 68 74 82 82 79 78 76 71 65 63 64 68 74 73 70 49 47 53 36 23 34 24 41 48 49 48 46
39 46 55 64 64 60 57 53 49 44 34 33 39 43 50 55 59 70 70 78 85 82 80 78 71 67 67 66 72 66 65 60 46 51 61 54 28 21 12 27 35 37 38
39 47 55 58 61 58 56 55 53 47 40 36 36 41 47 52 56 63 77 75 73 89 83 81 74 71 68 68 68 64 66 72 67 56 52 65 62 56 35 30 26 34 35
45 45 49 55 57 53 54 52 53 51 47 41 38 42 46 48 54 59 66 73 72 73 89 82 79 73 73 70 70 65 64 82 77 66 65 62 51 45 54 35 29 24 30
50 51 60 64 63 57 55 48 49 52 48 45 41 41 49 54 56 58 61 67 68 73 76 87 83 77 73 68 64 66 62 72 78 74 70 72 71 56 49 36 34 24 30
53 49 58 61 67 58 57 49 49 54 53 54 49 50 48 58 59 56 61 63 64 71 75 73 85 80 74 73 65 64 60 68 74 84 76 80 67 63 50 42 36 25 22
51 52 58 62 65 57 53 50 56 58 60 61 62 56 54 56 62 62 62 60 66 71 78 77 68 76 77 71 67 62 64 63 63 76 79 75 60 55 43 38 33 24 17
50 53 58 62 62 54 52 52 55 56 67 68 64 62 63 64 59 65 64 64 60 60 70 79 75 68 74 75 70 67 60 60 69 70 68 60 51 43 35 33 31 29 20
53 56 61 63 63 56 57 58 62 68 77 67 61 63 67 68 65 65 62 62 58 59 61 65 70 65 69 70 65 62 57 61 66 56 57 46 36 28 30 30 25 21 15
53 57 63 67 66 64 68 73 71 83 79 71 70 72 72 69 66 64 57 55 62 59 65 62 60 63 61 63 59 58 60 66 71 63 60 51 46 36 34 24 18 13 14
54 57 63 67 68 73 84 79 69 88 79 72 74 77 75 69 65 61 56 51 55 58 52 53 61 57 62 54 52 53 60 63 61 71 56 54 46 37 25 18 12 8 9
53 56 63 67 69 72 73 73 84 84 76 74 75 76 71 69 64 56 51 49 54 46 46 50 51 58 54 51 50 51 56 63 64 63 61 51 38 30 18 12 5 4 5
54 56 63 69 78 80 81 85 86 82 73 73 74 70 62 42 41 44 42 37 33 43 45 51 55 53 50 47 46 44 58 64 64 65 60 49 37 27 18 8 1 3 8
53 58 63 67 78 80 78 82 84 77 71 71 68 58 49 43 38 16 19 32 38 46 54 59 55 50 47 45 39 51 69 76 77 65 52 40 30 22 12 2 5 7 9
53 59 63 74 79 78 77 78 76 71 68 64 55 49 37 40 17 16 29 40 49 58 61 57 51 48 49 44 48 65 82 83 74 66 50 39 30 23 10 8 2 7 10
50 59 69 84 71 75 70 70 68 67 62 54 47 39 25 17 4 8 30 47 52 54 51 47 46 51 51 45 52 68 78 72 62 55 52 42 34 25 14 9 4 7 11
55 63 70 68 73 67 65 65 68 62 56 50 42 31 15 6 20 10 32 39 48 46 48 48 54 52 54 38 59 82 78 71 69 63 61 43 36 26 18 10 7 10 13
59 67 67 69 63 61 62 62 63 55 48 43 33 22 8 8 23 34 46 54 50 54 60 64 63 66 79 79 84 80 75 75 65 63 51 36 27 22 19 14 15 14 16
62 62 65 63 57 58 57 59 57 47 37 23 14 12 10 18 29 43 50 61 63 66 70 78 82 83 80 73 68 75 73 75 70 59 48 38 29 26 24 22 21 22 24
63 62 64 58 55 55 54 55 51 37 24 15 11 18 27 32 37 45 60 71 76 87 94 97 94 90 82 77 74 72 72 67 62 55 48 41 36 34 31 30 30 28 26
53 63 57 56 54 52 52 51 41 23 20 22 27 28 34 45 51 65 77 85 96 109 108 109 104 93 84 74 67 62 58 52 57 57 54 49 44 41 38 35 31 28 26
53 59 56 54 54 51 49 41 28 14 13 35 43 42 48 59 69 81 82 94 102 111 111 102 96 87 78 71 62 55 49 55 63 59 57 51 48 44 41 38 36 36 38
48 53 51 49 49 48 46 34 22 17 29 43 50 58 71 77 84 89 91 100 100 104 102 95 88 81 75 64 60 61 62 63 62 61 56 47 41 42 38 36 39 41 39
44 48 45 45 44 45 42 31 19 18 36 53 63 68 79 84 90 97 101 94 91 88 87 83 80 74 70 64 64 64 63 62 59 55 50 47 40 37 35 36 39 42 38
Wind_Direction_850mb
360 1 1 357 351 344 339 329 315 299 282 272 266 263 257 252 251 251 253 253 255 257 260 258 256 245 247 247 246 246 243 243 240 240 239 245 246 243 246 255 254 258 260
357 356 356 354 349 344 339 334 325 313 297 278 270 265 260 254 251 251 249 248 250 253 257 258 255 253 248 249 247 240 242 240 236 235 233 235 239 237 243 250 254 256 258
351 351 351 350 346 343 339 335 327 320 313 293 278 269 266 261 255 254 253 247 248 249 253 256 254 254 252 252 252 245 239 237 239 236 227 223 235 222 244 251 253 256 257
352 349 348 344 341 337 336 334 327 327 319 309 297 286 279 274 263 256 259 258 252 248 251 254 255 254 257 255 253 249 242 242 241 241 233 228 225 220 224 251 254 259 258
348 346 344 342 337 334 329 332 329 325 319 312 304 291 287 284 281 270 258 254 256 254 250 249 252 249 253 255 250 250 236 229 239 239 237 235 241 244 245 258 256 260 260
343 340 338 338 334 331 331 326 326 326 323 314 309 301 292 290 285 279 268 257 250 252 249 245 248 247 248 253 253 249 240 231 232 236 242 242 240 237 244 245 247 242 255
337 335 337 337 336 331 330 324 322 324 322 314 304 298 296 299 294 284 279 262 252 248 249 245 242 243 243 248 255 252 241 237 233 236 240 245 243 244 255 251 254 241 255
337 331 333 334 334 328 329 327 320 319 322 319 305 298 293 295 293 288 282 271 254 249 247 252 243 243 244 246 250 252 252 245 233 235 232 239 244 250 253 254 251 245 254
335 333 332 333 330 326 325 320 322 315 318 314 309 298 295 294 293 292 282 271 261 252 245 244 247 242 241 244 246 249 254 247 234 228 229 236 238 243 246 246 249 240 244
332 332 332 331 331 325 323 320 319 316 318 315 308 298 290 292 293 293 287 269 261 255 243 240 244 242 239 240 242 245 253 244 239 235 227 227 229 235 239 237 247 247 243
332 331 332 333 331 328 326 324 320 316 322 318 309 303 297 293 291 286 286 267 261 249 246 242 240 237 235 233 232 242 244 230 235 232 219 217 220 231 241 235 238 246 258
329 332 333 333 333 329 327 322 322 324 322 321 311 306 301 300 291 286 280 267 265 254 244 238 228 227 232 225 224 235 233 232 232 229 213 208 216 220 226 226 234 253 264
331 332 332 334 332 328 333 332 316 322 321 319 315 311 305 304 294 286 277 266 260 252 243 223 216 217 220 213 222 229 231 234 228 216 207 203 192 199 205 219 228 254 301
328 329 331 330 330 327 325 323 321 323 322 320 319 315 311 303 290 286 269 264 254 230 218 211 207 211 208 215 219 222 223 214 203 198 194 184 173 178 162 215 223 287 325
329 330 331 330 329 328 332 326 329 330 327 323 326 322 321 313 290 276 263 252 209 205 206 199 198 199 205 209 215 214 219 207 189 176 167 164 166 164 140 181 120 350 336
328 329 330 328 329 331 328 332 333 331 330 331 328 329 329 323 317 261 189 193 191 197 195 187 190 197 199 205 208 207 198 183 179 168 155 147 141 120 152 116 296 319 338
326 327 328 331 334 333 334 335 335 336 336 331 335 334 332 334 329 189 187 188 188 186 181 182 188 185 188 196 205 198 177 171 164 157 148 147 131 117 151 160 35 360 346
326 328 330 338 335 340 342 339 341 342 339 340 340 339 338 341 98 163 173 170 165 169 171 168 171 173 175 198 205 187 164 147 137 126 129 122 122 128 128 99 49 2 6
329 330 335 338 338 347 346 344 346 343 345 344 348 343 341 92 143 152 160 162 163 149 151 155 158 163 162 181 169 157 144 134 122 113 111 127 136 142 127 104 62 43 33
333 336 342 341 347 351 350 349 347 348 349 348 348 343 343 150 149 156 156 154 157 150 146 144 143 145 147 154 149 143 137 128 123 116 123 133 132 120 109 94 82 68 52
337 341 346 348 353 353 353 351 354 353 350 355 352 38 95 131 145 149 150 149 143 142 139 134 132 132 130 131 130 123 120 119 121 129 130 121 114 105 98 94 86 68 52
340 347 351 351 357 356 359 355 356 354 4 2 78 99 112 125 137 141 136 137 141 134 128 125 119 114 110 111 110 111 115 124 124 124 118 110 105 101 95 84 70 58 51
344 353 353 355 1 1 359 359 359 355 49 77 96 106 119 121 123 123 123 116 121 127 122 117 114 113 112 110 108 109 111 117 119 114 108 103 98 91 81 72 66 62 55
346 358 358 357 1 1 360 5 3 29 78 101 107 112 116 119 122 119 118 120 121 119 118 118 118 119 117 114 113 114 120 121 109 105 101 99 92 85 76 72 63 56 52
351 2 2 359 5 360 4 13 18 57 93 107 112 112 115 118 119 119 117 120 118 118 117 117 116 115 114 116 123 125 119 111 110 107 101 93 86 78 69 62 57 51 48
355 5 6 4 10 7 11 24 32 86 108 109 110 113 112 112 110 109 109 107 110 114 112 112 113 112 108 112 112 110 108 108 107 100 94 86 78 69 59 53 50 46 44